Voltar ao catálogo

STARLINK-36738

AtivoComunicaçõesVLEO
NORAD 67865·PAYLOAD·🇺🇸 United States

Lançado Feb 20, 2026 de Vandenberg Space Force Base

Loading…

Próximas Passagens (próximas 24 horas)

TLE

AtualizadoSource: CelesTrak SupGP

Época: Sep 15, 2026, 03:09 UTC

1 67865C 26034R   26258.13173611 -.00004074  00000+0 -12041-3 0  2588
2 67865  53.1604  42.6888 0001043  84.2235 248.2868 15.34385976    11

Acompanhe STARLINK-36738 em tempo real com AllMySat

Download on the App Store